| time (UTC) | temp C | wind direction | speed KPH | gust KPH | rain 1hr cm | rain 24hr cm | rain mn cm | humidity % | barometer mb |
| 20260902070019 | 22 | 182 | 0.0 | 0.0 | 0.00 | 0.00 | 0.00 | 91 | 1017.9 |
| 20260902064524 | 22 | 182 | 0.0 | 0.0 | 0.00 | 0.00 | 0.00 | 90 | 1017.9 |
| 20260902063028 | 22 | 182 | 0.0 | 0.0 | 0.00 | 0.00 | 0.00 | 90 | 1017.9 |
| 20260902061514 | 22 | 182 | 0.0 | 1.6 | 0.00 | 0.00 | 0.00 | 90 | 1017.8 |
| 20260902060012 | 23 | 182 | 0.0 | 4.8 | 0.00 | 0.00 | 0.00 | 89 | 1017.6 |
| 20260902054518 | 23 | 182 | 0.0 | 0.0 | 0.00 | 0.00 | 0.00 | 89 | 1017.7 |
| 20260902053016 | 24 | 182 | 0.0 | 4.8 | 0.00 | 0.00 | 0.00 | 87 | 1017.6 |
| 20260902051502 | 25 | 182 | 0.0 | 4.8 | 0.00 | 0.00 | 0.00 | 86 | 1017.5 |
| 20260902050101 | 25 | 196 | 1.6 | 6.4 | 0.00 | 0.00 | 0.00 | 84 | 1017.5 |
| 20260902044556 | 25 | 202 | 1.6 | 6.4 | 0.00 | 0.00 | 0.00 | 83 | 1017.5 |
| 20260902043059 | 26 | 194 | 3.2 | 8.0 | 0.00 | 0.00 | 0.00 | 81 | 1017.7 |
| 20260902041548 | 26 | 199 | 3.2 | 12.9 | 0.00 | 0.00 | 0.00 | 80 | 1017.5 |
| 20260902040045 | 27 | 217 | 3.2 | 12.9 | 0.00 | 0.00 | 0.00 | 78 | 1017.3 |
| 20260902034545 | 26 | 161 | 3.2 | 9.7 | 0.00 | 0.00 | 0.00 | 79 | 1017.1 |
| 20260902033057 | 27 | 215 | 3.2 | 11.3 | 0.00 | 0.00 | 0.00 | 79 | 1017.2 |
| 20260902031543 | 27 | 232 | 3.2 | 11.3 | 0.00 | 0.00 | 0.00 | 79 | 1017.0 |
| 20260902030043 | 26 | 211 | 4.8 | 12.9 | 0.00 | 0.00 | 0.00 | 79 | 1016.8 |
| 20260902024543 | 26 | 186 | 3.2 | 9.7 | 0.00 | 0.00 | 0.00 | 81 | 1016.9 |
| 20260902023046 | 26 | 178 | 3.2 | 9.7 | 0.00 | 0.00 | 0.00 | 82 | 1017.0 |
| 20260902021541 | 26 | 187 | 3.2 | 9.7 | 0.00 | 0.00 | 0.00 | 82 | 1017.0 |
| 20260902020041 | 26 | 203 | 4.8 | 11.3 | 0.00 | 0.00 | 0.00 | 83 | 1016.9 |
| 20260902014541 | 26 | 230 | 3.2 | 11.3 | 0.00 | 0.00 | 0.00 | 84 | 1017.0 |
| 20260902013040 | 25 | 194 | 4.8 | 9.7 | 0.00 | 0.00 | 0.00 | 87 | 1016.9 |
| 20260902011540 | 24 | 199 | 1.6 | 12.9 | 0.00 | 0.00 | 0.00 | 90 | 1016.8 |
| 20260902010046 | 24 | 161 | 0.0 | 3.2 | 0.00 | 0.00 | 0.00 | 90 | 1016.9 |
| 20260902004539 | 24 | 161 | 0.0 | 3.2 | 0.00 | 0.00 | 0.00 | 90 | 1016.9 |
| 20260902003038 | 25 | 161 | 0.0 | 3.2 | 0.00 | 0.00 | 0.00 | 89 | 1016.9 |
| 20260902001537 | 25 | 161 | 0.0 | 3.2 | 0.00 | 0.00 | 0.00 | 88 | 1017.0 |
| 20260902000038 | 26 | 161 | 0.0 | 3.2 | 0.00 | 0.00 | 0.00 | 87 | 1017.2 |
| 20260901234534 | 27 | 161 | 0.0 | 4.8 | 0.00 | 0.00 | 0.00 | 85 | 1017.3 |
| 20260901233032 | 27 | 161 | 0.0 | 4.8 | 0.00 | 0.00 | 0.00 | 85 | 1017.5 |
| 20260901231532 | 28 | 161 | 0.0 | 8.0 | 0.00 | 0.00 | 0.00 | 82 | 1017.4 |
| 20260901230041 | 29 | 239 | 1.6 | 6.4 | 0.00 | 0.00 | 0.00 | 82 | 1017.7 |
| 20260901224531 | 29 | 201 | 1.6 | 6.4 | 0.00 | 0.00 | 0.00 | 82 | 1017.8 |
| 20260901223030 | 29 | 202 | 1.6 | 8.0 | 0.00 | 0.00 | 0.00 | 82 | 1017.8 |
| 20260901221538 | 28 | 192 | 1.6 | 4.8 | 0.00 | 0.00 | 0.00 | 82 | 1017.8 |
| 20260901220030 | 29 | 192 | 1.6 | 6.4 | 0.00 | 0.00 | 0.00 | 81 | 1017.9 |
| 20260901214529 | 30 | 195 | 3.2 | 8.0 | 0.00 | 0.00 | 0.00 | 76 | 1018.0 |
| 20260901213054 | 30 | 171 | 3.2 | 16.1 | 0.00 | 0.00 | 0.00 | 76 | 1018.0 |
| 20260901211539 | 30 | 201 | 1.6 | 16.1 | 0.00 | 0.00 | 0.00 | 74 | 1017.8 |
| 20260901210035 | 30 | 193 | 6.4 | 16.1 | 0.00 | 0.00 | 0.00 | 73 | 1017.7 |
| 20260901204526 | 30 | 197 | 4.8 | 11.3 | 0.00 | 0.00 | 0.00 | 76 | 1017.8 |
| 20260901203032 | 30 | 182 | 3.2 | 9.7 | 0.00 | 0.00 | 0.00 | 82 | 1017.8 |
| 20260901201518 | 28 | 163 | 0.0 | 8.0 | 0.00 | 0.00 | 0.00 | 86 | 1017.7 |
| 20260901200034 | 27 | 195 | 0.0 | 8.0 | 0.00 | 0.00 | 0.00 | 88 | 1017.7 |
| 20260901194512 | 25 | 167 | 1.6 | 6.4 | 0.00 | 0.00 | 0.00 | 91 | 1017.8 |
| 20260901193017 | 23 | 173 | 0.0 | 4.8 | 0.00 | 0.00 | 0.00 | 91 | 1017.6 |
| 20260901191513 | 23 | 173 | 0.0 | 3.2 | 0.00 | 0.00 | 0.00 | 90 | 1017.9 |
| 20260901190010 | 23 | 173 | 1.6 | 8.0 | 0.00 | 0.00 | 0.00 | 89 | 1018.6 |
| 20260901184509 | 23 | 202 | 3.2 | 8.0 | 0.00 | 0.00 | 0.00 | 90 | 1018.6 |
| 20260901183012 | 23 | 157 | 0.0 | 4.8 | 0.00 | 0.00 | 0.00 | 90 | 1018.8 |
| 20260901181512 | 24 | 153 | 0.0 | 6.4 | 0.00 | 0.00 | 0.00 | 91 | 1019.3 |
| 20260901180007 | 24 | 28 | 0.0 | 1.6 | 0.00 | 0.00 | 0.00 | 91 | 1019.4 |
| 20260901174508 | 23 | 157 | 0.0 | 1.6 | 0.00 | 0.00 | 0.00 | 91 | 1019.5 |
| 20260901173007 | 23 | 159 | 0.0 | 0.0 | 0.00 | 0.00 | 0.00 | 91 | 1019.9 |
| 20260901171506 | 23 | 159 | 0.0 | 3.2 | 0.00 | 0.00 | 0.00 | 91 | 1019.9 |
| 20260901170007 | 23 | 159 | 1.6 | 4.8 | 0.00 | 0.00 | 0.00 | 91 | 1019.8 |
| 20260901164510 | 22 | 159 | 0.0 | 3.2 | 0.00 | 0.00 | 0.00 | 91 | 1019.7 |
| 20260901163005 | 22 | 159 | 0.0 | 4.8 | 0.00 | 0.00 | 0.00 | 91 | 1019.7 |
| 20260901161505 | 22 | 155 | 3.2 | 6.4 | 0.00 | 0.00 | 0.00 | 91 | 1019.7 |
| 20260901160004 | 22 | 34 | 0.0 | 3.2 | 0.00 | 0.00 | 0.00 | 90 | 1019.9 |
| 20260901154512 | 23 | 34 | 3.2 | 17.7 | 0.00 | 0.00 | 0.00 | 88 | 1021.1 |
| 20260901153001 | 25 | 5 | 3.2 | 17.7 | 0.00 | 0.00 | 0.00 | 85 | 1020.9 |
| 20260901151558 | 26 | 17 | 3.2 | 9.7 | 0.00 | 0.00 | 0.00 | 82 | 1020.3 |
| 20260901150054 | 27 | 238 | 0.0 | 9.7 | 0.00 | 0.00 | 0.00 | 81 | 1019.5 |
| 20260901144554 | 27 | 224 | 3.2 | 14.5 | 0.00 | 0.00 | 0.00 | 80 | 1019.1 |
| 20260901143053 | 26 | 333 | 4.8 | 11.3 | 0.00 | 0.00 | 0.00 | 81 | 1019.1 |
| 20260901141555 | 26 | 234 | 1.6 | 11.3 | 0.00 | 0.00 | 0.00 | 84 | 1019.0 |
| 20260901140044 | 25 | 230 | 3.2 | 11.3 | 0.00 | 0.00 | 0.00 | 83 | 1018.9 |
| 20260901134542 | 25 | 239 | 6.4 | 14.5 | 0.00 | 0.00 | 0.00 | 84 | 1018.9 |
| 20260901133041 | 25 | 216 | 4.8 | 11.3 | 0.00 | 0.00 | 0.00 | 85 | 1018.8 |
| 20260901131537 | 24 | 213 | 3.2 | 11.3 | 0.00 | 0.00 | 0.00 | 87 | 1019.0 |
| 20260901130033 | 23 | 212 | 4.8 | 11.3 | 0.00 | 0.00 | 0.00 | 87 | 1019.1 |
| 20260901124531 | 23 | 229 | 6.4 | 11.3 | 0.00 | 0.00 | 0.00 | 88 | 1019.2 |
| 20260901123029 | 23 | 206 | 4.8 | 11.3 | 0.00 | 0.00 | 0.00 | 89 | 1019.4 |
| 20260901121534 | 23 | 176 | 4.8 | 11.3 | 0.00 | 0.00 | 0.00 | 89 | 1019.2 |
| 20260901120038 | 23 | 226 | 3.2 | 9.7 | 0.00 | 0.00 | 0.00 | 89 | 1019.1 |
| 20260901114524 | 23 | 209 | 3.2 | 8.0 | 0.00 | 0.00 | 0.00 | 89 | 1018.9 |
| 20260901113023 | 22 | 227 | 3.2 | 8.0 | 0.00 | 0.00 | 0.00 | 89 | 1018.8 |
| 20260901111522 | 22 | 184 | 3.2 | 8.0 | 0.00 | 0.00 | 0.00 | 90 | 1018.7 |
| 20260901110023 | 22 | 220 | 4.8 | 9.7 | 0.00 | 0.00 | 0.00 | 90 | 1018.5 |
| 20260901104523 | 22 | 190 | 4.8 | 9.7 | 0.00 | 0.00 | 0.00 | 90 | 1018.4 |
| 20260901103018 | 22 | 192 | 3.2 | 9.7 | 0.00 | 0.00 | 0.00 | 90 | 1018.4 |
| 20260901101519 | 22 | 210 | 4.8 | 11.3 | 0.00 | 0.00 | 0.00 | 91 | 1018.3 |
| 20260901100017 | 22 | 192 | 1.6 | 9.7 | 0.00 | 0.00 | 0.00 | 91 | 1018.1 |
| 20260901094520 | 22 | 202 | 3.2 | 8.0 | 0.00 | 0.00 | 0.00 | 91 | 1018.1 |
| 20260901093016 | 22 | 184 | 3.2 | 9.7 | 0.00 | 0.00 | 0.00 | 91 | 1018.0 |
| 20260901091516 | 22 | 172 | 1.6 | 6.4 | 0.00 | 0.00 | 0.00 | 90 | 1018.1 |
| 20260901090015 | 21 | 202 | 1.6 | 6.4 | 0.00 | 0.00 | 0.00 | 90 | 1018.0 |
| 20260901084514 | 21 | 202 | 0.0 | 3.2 | 0.00 | 0.00 | 0.00 | 90 | 1018.1 |
| 20260901083022 | 21 | 202 | 0.0 | 3.2 | 0.00 | 0.00 | 0.00 | 91 | 1018.0 |
| 20260901081516 | 21 | 202 | 0.0 | 1.6 | 0.00 | 0.00 | 0.00 | 91 | 1018.0 |
| 20260901080013 | 21 | 202 | 0.0 | 3.2 | 0.00 | 0.00 | 0.00 | 91 | 1017.9 |
| 20260901074514 | 21 | 202 | 0.0 | 1.6 | 0.00 | 0.00 | 0.00 | 91 | 1018.0 |
| 20260901073011 | 21 | 202 | 0.0 | 0.0 | 0.00 | 0.00 | 0.00 | 91 | 1017.9 |
| 20260901071510 | 21 | 202 | 0.0 | 0.0 | 0.00 | 0.00 | 0.00 | 91 | 1018.0 |